Limon, CO

9:03 AM MDT on April 29, 2017 (GMT -0600)
Limon Municipal

Weather History for KLIC - April, 2013

Change the Weather History Date:

Friday, April 19, 2013

  Actual Average Record
Temperature  
Mean Temperature 34 °F -  
Max Temperature 54 °F - 78 °F (2001)
Min Temperature 13 °F - 13 °F (2013)
Degree Days  
Heating Degree Days 31    
Month to date heating degree days 542  
Cooling Degree Days 0    
Month to date cooling degree days 0  
Moisture  
Dew Point 16 °F    
Average Humidity 54    
Maximum Humidity 88    
Minimum Humidity 19    
Precipitation  
Precipitation 0.00 in - 0.22 in (2003)
Month to date precipitation 0.14  
Year to date precipitation 2.24  
Sea Level Pressure  
Sea Level Pressure 30.07 in    
Wind  
Wind Speed 7 mph (WNW)    
Max Wind Speed 17 mph    
Max Gust Speed 24 mph    
Visibility 10 miles    
Events      
T = Trace of Precipitation, MM = Missing Value Source: NWS Daily Summary

Daily Weather History Graph

Daily Weather History Graph

Search for Another Location

Airport or City:

Trip Planner

Search our weather history database for the weather conditions in past years. The results will help you decide how hot, cold, wet, or windy it might be!

Date:

Astronomy

Apr. 19, 2013 Rise Set
Actual Time 6:11 AM MDT 7:36 PM MDT
Civil Twilight 5:43 AM MDT 8:04 PM MDT
Nautical Twilight 5:09 AM MDT 8:38 PM MDT
Astronomical Twilight 4:34 AM MDT 9:13 PM MDT
Moon 1:25 PM MDT (4/19) 2:26 AM MDT (4/19)
Length of Visible Light 14h 20m
Length of Day
13h 24m
Waxing Gibbous, 62% of the Moon is Illuminated
Apr 19
Waxing Gibbous
Apr 25
Full
May 2
Last Quarter
May 9
New
May 17
First Quarter

Hourly Weather History & Observations

Time (MDT) Temp. Windchill Dew Point Humidity Pressure Visibility Wind Dir Wind Speed Gust Speed Precip Events Conditions
12:55 AM 17.1 °F 5.8 °F 14.0 °F 88% 30.23 in 10.0 mi WNW 9.2 mph - N/A   Clear
1:55 AM 17.1 °F - 12.9 °F 84% 30.21 in 10.0 mi Calm Calm - N/A   Clear
2:55 AM 15.1 °F 7.7 °F 12.0 °F 88% 30.19 in 10.0 mi NNW 4.6 mph - N/A   Clear
3:55 AM 19.0 °F 12.3 °F 14.0 °F 81% 30.17 in 10.0 mi North 4.6 mph - N/A   Overcast
4:55 AM 15.1 °F 7.7 °F 10.9 °F 84% 30.19 in 10.0 mi North 4.6 mph - N/A   Clear
5:55 AM 15.1 °F 6.4 °F 10.9 °F 84% 30.19 in 10.0 mi NNW 5.8 mph - N/A   Clear
6:55 AM 21.0 °F 12.4 °F 15.1 °F 78% 30.18 in 10.0 mi NW 6.9 mph - N/A   Clear
7:55 AM 28.9 °F 21.1 °F 19.0 °F 67% 30.16 in 10.0 mi West 8.1 mph - N/A   Clear
8:55 AM 39.0 °F 31.8 °F 19.0 °F 45% 30.13 in 10.0 mi WNW 11.5 mph - N/A   Clear
9:55 AM 43.0 °F 35.7 °F 17.1 °F 35% 30.11 in 10.0 mi West 15.0 mph - N/A   Clear
10:55 AM 46.0 °F 40.2 °F 12.0 °F 25% 30.10 in 10.0 mi West 12.7 mph - N/A   Clear
11:55 AM 48.9 °F - 12.9 °F 24% 30.09 in 10.0 mi NNW 9.2 mph 21.9 mph N/A   Clear
12:55 PM 51.1 °F - 15.1 °F 24% 30.06 in 10.0 mi NW 9.2 mph 19.6 mph N/A   Clear
1:55 PM 52.0 °F - 15.1 °F 23% 30.04 in 10.0 mi NW 12.7 mph 19.6 mph N/A   Clear
2:55 PM 52.0 °F - 14.0 °F 22% 30.02 in 10.0 mi West 11.5 mph - N/A   Clear
3:55 PM 53.1 °F - 12.9 °F 20% 29.98 in 10.0 mi South 9.2 mph - N/A   Clear
4:55 PM 54.0 °F - 12.0 °F 19% 29.97 in 10.0 mi Calm Calm - N/A   Clear
5:55 PM 51.1 °F - 10.9 °F 20% 29.98 in 10.0 mi SSE 4.6 mph - N/A   Partly Cloudy
6:55 PM 48.0 °F - 16.0 °F 28% 29.97 in 10.0 mi SSE 13.8 mph - N/A   Overcast
7:55 PM 43.0 °F 36.8 °F 18.0 °F 37% 29.97 in 10.0 mi SSE 11.5 mph - N/A   Clear
8:55 PM 37.9 °F 33.5 °F 21.0 °F 51% 29.96 in 10.0 mi ESE 5.8 mph - N/A   Clear
9:55 PM 36.0 °F - 21.0 °F 55% 29.96 in 10.0 mi Calm Calm - N/A   Clear
10:55 PM 35.1 °F 32.2 °F 23.0 °F 61% 29.96 in 10.0 mi SE 3.5 mph - N/A   Scattered Clouds
11:55 PM 35.1 °F - 24.1 °F 64% 29.95 in 10.0 mi Calm Calm - N/A   Overcast